| time (UTC) | temp F | wind direction | speed knots | gust knots | rain 1hr in | rain 24hr in | rain mn in | humidity % | barometer mb |
| 20260506073021 | 67 | 330 | 0.0 | 3.5 | 0.00 | 0.00 | 0.00 | 74 | 1008.2 |
| 20260506071518 | 67 | 137 | 0.0 | 8.7 | 0.00 | 0.00 | 0.00 | 73 | 1008.3 |
| 20260506061515 | 68 | 80 | 0.0 | 2.6 | 0.00 | 0.00 | 0.00 | 69 | 1008.9 |
| 20260506044506 | 68 | 62 | 0.9 | 4.3 | 0.00 | 0.00 | 0.00 | 63 | 1009.7 |
| 20260506043005 | 68 | 232 | 0.9 | 4.3 | 0.00 | 0.00 | 0.00 | 63 | 1009.6 |
| 20260506041607 | 68 | 294 | 0.0 | 3.5 | 0.00 | 0.00 | 0.00 | 62 | 1009.6 |
| 20260506040106 | 68 | 67 | 0.0 | 7.0 | 0.00 | 0.00 | 0.00 | 61 | 1009.7 |
| 20260506034605 | 68 | 247 | 0.0 | 3.5 | 0.00 | 0.00 | 0.00 | 62 | 1009.6 |
| 20260506033057 | 67 | 254 | 0.9 | 6.1 | 0.00 | 0.00 | 0.00 | 61 | 1010.0 |
| 20260506031557 | 67 | 213 | 0.0 | 1.7 | 0.00 | 0.00 | 0.00 | 61 | 1010.2 |
| 20260506030058 | 67 | 249 | 0.0 | 3.5 | 0.00 | 0.00 | 0.00 | 61 | 1009.9 |
| 20260506024600 | 67 | 234 | 0.0 | 2.6 | 0.00 | 0.00 | 0.00 | 62 | 1010.0 |
| 20260506023055 | 67 | 130 | 0.0 | 2.6 | 0.00 | 0.00 | 0.00 | 62 | 1010.3 |
| 20260506021603 | 67 | 15 | 0.0 | 1.7 | 0.00 | 0.00 | 0.00 | 61 | 1010.0 |
| 20260506020054 | 67 | 16 | 0.0 | 1.7 | 0.00 | 0.00 | 0.00 | 61 | 1009.7 |
| 20260506014554 | 67 | 97 | 0.9 | 4.3 | 0.00 | 0.00 | 0.00 | 61 | 1009.6 |
| 20260506013102 | 67 | 280 | 0.0 | 3.5 | 0.00 | 0.00 | 0.00 | 61 | 1009.4 |
| 20260506011604 | 67 | 14 | 0.9 | 4.3 | 0.00 | 0.00 | 0.00 | 60 | 1009.1 |
| 20260506010053 | 67 | 295 | 0.0 | 2.6 | 0.00 | 0.00 | 0.00 | 59 | 1009.1 |
| 20260506004552 | 68 | 253 | 0.9 | 2.6 | 0.00 | 0.00 | 0.00 | 57 | 1009.2 |
| 20260506003051 | 68 | 264 | 0.0 | 5.2 | 0.00 | 0.00 | 0.00 | 56 | 1009.1 |
| 20260506001552 | 68 | 323 | 0.0 | 3.5 | 0.00 | 0.00 | 0.00 | 54 | 1009.3 |
| 20260506000050 | 68 | 242 | 0.0 | 4.3 | 0.00 | 0.00 | 0.00 | 53 | 1009.4 |
| 20260505234558 | 68 | 253 | 0.0 | 1.7 | 0.00 | 0.00 | 0.00 | 53 | 1009.6 |
| 20260505233049 | 67 | 302 | 0.0 | 3.5 | 0.00 | 0.00 | 0.00 | 53 | 1009.4 |
| 20260505231603 | 68 | 197 | 0.0 | 4.3 | 0.00 | 0.00 | 0.00 | 55 | 1009.7 |
| 20260505230051 | 69 | 288 | 0.0 | 5.2 | 0.00 | 0.00 | 0.00 | 51 | 1009.5 |
| 20260505224546 | 70 | 77 | 0.0 | 4.3 | 0.00 | 0.00 | 0.00 | 49 | 1009.3 |
| 20260505223047 | 68 | 211 | 0.0 | 3.5 | 0.00 | 0.00 | 0.00 | 49 | 1009.6 |
| 20260505221553 | 67 | 89 | 0.0 | 2.6 | 0.00 | 0.00 | 0.00 | 52 | 1009.4 |
| 20260505220044 | 67 | 217 | 0.0 | 2.6 | 0.00 | 0.00 | 0.00 | 55 | 1009.7 |
| 20260505214603 | 67 | 61 | 0.0 | 1.7 | 0.00 | 0.00 | 0.00 | 59 | 1009.3 |
| 20260505213044 | 67 | 7 | 0.0 | 1.7 | 0.00 | 0.00 | 0.00 | 59 | 1009.3 |
| 20260505211541 | 68 | 107 | 0.0 | 3.5 | 0.00 | 0.00 | 0.00 | 55 | 1009.8 |
| 20260505210042 | 69 | 240 | 0.9 | 2.6 | 0.00 | 0.00 | 0.00 | 50 | 1010.0 |
| 20260505204538 | 70 | 249 | 0.0 | 3.5 | 0.00 | 0.00 | 0.00 | 46 | 1010.1 |
| 20260505203038 | 71 | 319 | 0.0 | 4.3 | 0.00 | 0.00 | 0.00 | 44 | 1010.1 |
| 20260505201536 | 72 | 348 | 0.9 | 5.2 | 0.00 | 0.00 | 0.00 | 44 | 1010.3 |
| 20260505200042 | 72 | 64 | 0.9 | 2.6 | 0.00 | 0.00 | 0.00 | 41 | 1010.5 |
| 20260505194533 | 74 | 141 | 0.0 | 7.8 | 0.00 | 0.00 | 0.00 | 41 | 1010.8 |
| 20260505193035 | 74 | 99 | 0.0 | 5.2 | 0.00 | 0.00 | 0.00 | 39 | 1010.8 |
| 20260505191532 | 74 | 43 | 0.9 | 6.1 | 0.00 | 0.00 | 0.00 | 38 | 1011.0 |
| 20260505190036 | 74 | 225 | 1.7 | 5.2 | 0.00 | 0.00 | 0.00 | 39 | 1011.0 |
| 20260505184529 | 74 | 69 | 0.9 | 7.0 | 0.00 | 0.00 | 0.00 | 45 | 1011.0 |
| 20260505183031 | 73 | 232 | 0.9 | 3.5 | 0.00 | 0.00 | 0.00 | 43 | 1011.0 |
| 20260505181526 | 72 | 126 | 1.7 | 8.7 | 0.00 | 0.00 | 0.00 | 41 | 1011.4 |
| 20260505180026 | 72 | 193 | 0.9 | 8.7 | 0.00 | 0.00 | 0.00 | 43 | 1011.8 |
| 20260505174523 | 72 | 38 | 0.9 | 7.8 | 0.00 | 0.00 | 0.00 | 45 | 1011.7 |
| 20260505173022 | 72 | 157 | 0.9 | 7.0 | 0.00 | 0.00 | 0.00 | 48 | 1011.9 |
| 20260505171521 | 70 | 259 | 1.7 | 3.5 | 0.00 | 0.00 | 0.00 | 47 | 1012.0 |
| 20260505170018 | 70 | 56 | 0.0 | 2.6 | 0.00 | 0.00 | 0.00 | 53 | 1012.5 |
| 20260505164517 | 70 | 9 | 0.9 | 6.1 | 0.00 | 0.00 | 0.00 | 53 | 1012.6 |
| 20260505163018 | 69 | 43 | 0.9 | 4.3 | 0.00 | 0.00 | 0.00 | 57 | 1012.6 |
| 20260505161517 | 68 | 245 | 0.0 | 3.5 | 0.00 | 0.00 | 0.00 | 61 | 1012.8 |
| 20260505153006 | 65 | 33 | 0.0 | 4.3 | 0.00 | 0.00 | 0.00 | 66 | 1012.9 |
| 20260505151505 | 65 | 57 | 0.0 | 2.6 | 0.00 | 0.00 | 0.00 | 66 | 1012.9 |
| 20260505124607 | 60 | 186 | 0.0 | 2.6 | 0.00 | 0.00 | 0.00 | 66 | 1012.7 |
| 20260505123056 | 60 | 181 | 0.0 | 2.6 | 0.00 | 0.00 | 0.00 | 65 | 1012.3 |
| 20260505121555 | 60 | 277 | 0.0 | 2.6 | 0.00 | 0.00 | 0.00 | 64 | 1012.1 |
| 20260505120054 | 60 | 245 | 0.0 | 3.5 | 0.00 | 0.00 | 0.00 | 62 | 1012.0 |
| 20260505114557 | 60 | 239 | 0.0 | 2.6 | 0.00 | 0.00 | 0.00 | 61 | 1012.0 |
| 20260505113059 | 60 | 151 | 0.0 | 0.0 | 0.00 | 0.00 | 0.00 | 59 | 1011.8 |
| 20260505111548 | 60 | 210 | 0.0 | 1.7 | 0.00 | 0.00 | 0.00 | 59 | 1011.7 |
| 20260505101552 | 61 | 179 | 0.0 | 1.7 | 0.00 | 0.00 | 0.00 | 57 | 1011.1 |
| 20260505100044 | 60 | 212 | 0.0 | 1.7 | 0.00 | 0.00 | 0.00 | 57 | 1011.1 |
| 20260505094543 | 61 | 76 | 0.0 | 1.7 | 0.00 | 0.00 | 0.00 | 57 | 1010.8 |
| 20260505093050 | 61 | 265 | 0.0 | 1.7 | 0.00 | 0.00 | 0.00 | 56 | 1011.0 |
| 20260505091551 | 61 | 29 | 0.0 | 4.3 | 0.00 | 0.00 | 0.00 | 56 | 1011.1 |
| 20260505090042 | 61 | 1 | 0.0 | 1.7 | 0.00 | 0.00 | 0.00 | 56 | 1010.9 |
| 20260505084542 | 61 | 254 | 0.0 | 1.7 | 0.00 | 0.00 | 0.00 | 57 | 1010.9 |
| 20260505083038 | 61 | 38 | 0.0 | 1.7 | 0.00 | 0.00 | 0.00 | 56 | 1011.1 |
| 20260505081536 | 61 | 261 | 0.0 | 1.7 | 0.00 | 0.00 | 0.00 | 54 | 1011.2 |